Location: Colossi of Memnon
(25.7167°N, 32.6167°E)
Time: 02:40:19
(UTC+00:00)

Envisat - Pass Details

Date: 20 September 2021
Orbit: 764 x 766 km, 98.2° (Epoch: 15 October)

Event Time Altitude Azimuth Distance (km) Brightness Sun altitude
Rises 02:08:29 0° 27° (NNE) 3,228 6.8 -20.7°
Reaches altitude 10° 02:11:04 10° 38° (NE) 2,299 6.1 -20.1°
Maximum altitude 02:15:28 30° 98° (E) 1,357 5.0 -19.1°
Drops below altitude 10° 02:19:50 10° 158° (SSE) 2,290 5.6 -18.2°
Sets 02:22:23 0° 169° (S) 3,213 6.2 -17.6°
